Find Starlink 32514

NORAD ID: 61965 Int'l Des: 2024-210 Owner: SPXS Country: US Constellation: starlink operational
LEOCIRCULAR

Current View

Loading 3D Globe...

About Starlink 32514

Starlink 32514 (NORAD 61965) is a starlink constellation satellite (v2 mini) launched Nov 14, 2024 by SPXS of US. It operates in LEO, CIRCULAR orbit with a mass of 730.00 kg.

Upcoming Passes

Passes for default location (London). Set your location on the main map for personalized predictions.

Altitude History

Loading altitude history...

Two-Line Element Set

1 61965U 24210G 26264.01409841 .00014582 00000-0 53826-3 0 9990
2 61965 43.0049 149.6995 0001565 260.3671 99.7004 15.27587022104861
Epoch: Sep 21, 2026 • Age: 17 hours

Current Status

Altitude 494.9 km
Apogee / Perigee N/A
Velocity 7.62 km/s
Sub-Earth Point -42.43°S, 144.74°E
Launch Date Nov 14, 2024
Age 1.8 years
Type internet

Technical Details

Classification Payload
Mass 730.00 kg
Dry Mass 700.00 kg
Length 0.30 m
Span 29.00 m
Shape ? Box + pan
Manufacturer SPXS
Bus Type Starlink V2M
Phase Status In Orbit
Owner/State SPXS/US

Most Searched